Home > Weather > Rarotonga > Past weeks

Flag for Cook Islands Weather for the Past 2 Weeks in Rarotonga, Cook Islands

Now
73 °F

Passing clouds.


Feels Like: 74 °F
Forecast: 74 / 80 °F
Wind: 13 mph from East

Location: Rarotonga

Current Time: May 3, 2016 at 6:33:03 AM

Latest Report: May 3, 2016 at 6:00 AM


Visibility: N/A

Pressure: 30.04 "Hg

Humidity: 78%

Dew Point: 66 °F

Location of RarotongaLocation

Historic Weather in Rarotonga — Graph

°F

Rarotonga Temperature Yesterday

Maximum temperature yesterday: 79 °F (at 12:00 PM)
Minimum temperature yesterday: 72 °F (at 7:00 AM)
Average temperature yesterday: 75 °F

High & Low Weather Summary for the Past Weeks

 TemperatureHumidityPressure
High82 °F (Apr 21, 3:00 PM)100% (Apr 20, 3:00 AM)30.07 "Hg (Apr 20, 3:00 AM)
Low68 °F (Apr 20, 3:00 AM)50% (Apr 28, 9:00 PM)29.53 "Hg (Apr 26, 3:00 PM)
Average76 °F75%29.91 "Hg
* Reported Apr 18 9:00 AM — May 3 5:00 AM, Rarotonga, Weather by CustomWeather, © 2016

Note: Actual official high and low records may vary slightly from our data, if they occured in-between our weather recording intervals... More about our weather records

Advertising

Rarotonga Weather History for the Previous 24 Hours

Scroll right to see more
 ConditionsComfort  
Time TempWeatherWind HumidityBarometerVisibility
5:00 AM
Tue, May 3
73 °FPassing clouds.10 mph78%30.04 "HgN/A
4:00 AM73 °FPartly cloudy.9 mph83%30.01 "HgN/A
3:00 AM73 °FScattered showers. Partly cloudy.10 mph78%30.04 "HgN/A
2:00 AM73 °FPassing clouds.16 mph78%30.07 "HgN/A
12:00 AM73 °FPassing clouds.10 mph78%30.07 "HgN/A
11:00 PM
Mon, May 2
73 °FPassing clouds.15 mph78%30.07 "HgN/A
10:00 PM73 °FPassing clouds.12 mph74%30.07 "HgN/A
9:00 PM75 °FPassing clouds.10 mph69%30.07 "HgN/A
8:00 PM75 °FPassing clouds.21 mph69%30.07 "HgN/A
7:00 PM75 °FPassing clouds.6 mph69%30.04 "HgN/A
6:00 PM75 °FScattered showers. Broken clouds.12 mph69%30.01 "HgN/A
5:00 PM75 °FScattered showers. More clouds than sun.12 mph69%29.98 "HgN/A
4:00 PM75 °FScattered showers. More clouds than sun.13 mph69%29.98 "HgN/A
3:00 PM77 °FMore clouds than sun.14 mph65%29.98 "HgN/A
2:00 PM77 °FBroken clouds.12 mph65%29.98 "HgN/A
1:00 PM77 °FScattered clouds.10 mph65%30.01 "HgN/A
12:00 PM79 °FScattered clouds.15 mph61%30.04 "HgN/A
11:00 AM77 °FBroken clouds.13 mph65%30.07 "HgN/A
10:00 AM77 °FPartly sunny.12 mph65%30.07 "HgN/A
9:00 AM75 °FPartly sunny.12 mph78%30.07 "HgN/A
8:00 AM75 °FBroken clouds.13 mph69%30.04 "HgN/A
7:00 AM72 °FScattered showers. Broken clouds.8 mph83%30.04 "HgN/A
6:00 AM75 °FPartly cloudy.9 mph69%29.98 "HgN/A
Weather by CustomWeather, © 2016

See weather overviewHow to use our weather pages